| time (UTC) | temp F | wind direction | speed knots | gust knots | rain 1hr in | rain 24hr in | rain mn in | humidity % | barometer mb |
| 20260902224513 | 50 | 21 | 6.1 | 14.8 | 0.00 | 0.00 | 0.00 | 75 | 1012.9 |
| 20260902224008 | 50 | 43 | 4.3 | 14.8 | 0.00 | 0.00 | 0.00 | 75 | 1012.9 |
| 20260902223504 | 49 | 22 | 6.1 | 16.5 | 0.00 | 0.00 | 0.00 | 76 | 1013.0 |
| 20260902223006 | 49 | 358 | 6.1 | 16.5 | 0.00 | 0.00 | 0.00 | 76 | 1013.2 |
| 20260902222503 | 48 | 20 | 8.7 | 13.9 | 0.00 | 0.00 | 0.00 | 76 | 1013.1 |
| 20260902222004 | 48 | 354 | 7.8 | 13.0 | 0.00 | 0.00 | 0.00 | 78 | 1013.0 |
| 20260902221508 | 47 | 2 | 7.0 | 13.9 | 0.00 | 0.00 | 0.00 | 78 | 1013.0 |
| 20260902221004 | 47 | 10 | 5.2 | 13.9 | 0.00 | 0.00 | 0.00 | 78 | 1012.8 |
| 20260902220504 | 47 | 13 | 8.7 | 15.6 | 0.00 | 0.00 | 0.00 | 78 | 1012.8 |
| 20260902220008 | 47 | 15 | 7.0 | 15.6 | 0.00 | 0.00 | 0.00 | 78 | 1012.6 |
| 20260902215504 | 47 | 1 | 8.7 | 14.8 | 0.00 | 0.00 | 0.00 | 78 | 1012.7 |
| 20260902215007 | 47 | 23 | 7.8 | 14.8 | 0.00 | 0.00 | 0.00 | 77 | 1012.5 |
| 20260902214511 | 47 | 18 | 8.7 | 14.8 | 0.00 | 0.00 | 0.00 | 77 | 1012.4 |
| 20260902214006 | 47 | 15 | 7.8 | 14.8 | 0.00 | 0.00 | 0.00 | 77 | 1012.3 |
| 20260902213507 | 47 | 18 | 8.7 | 14.8 | 0.00 | 0.00 | 0.00 | 76 | 1012.2 |
| 20260902213004 | 47 | 354 | 7.8 | 18.2 | 0.00 | 0.00 | 0.00 | 76 | 1012.0 |
| 20260902212507 | 47 | 11 | 7.8 | 18.2 | 0.00 | 0.00 | 0.00 | 76 | 1011.8 |
| 20260902212005 | 46 | 1 | 5.2 | 12.2 | 0.00 | 0.00 | 0.00 | 76 | 1011.9 |
| 20260902211507 | 46 | 355 | 6.1 | 11.3 | 0.00 | 0.00 | 0.00 | 76 | 1011.8 |
| 20260902211011 | 47 | 39 | 4.3 | 12.2 | 0.00 | 0.00 | 0.00 | 75 | 1011.7 |
| 20260902210504 | 47 | 18 | 5.2 | 13.9 | 0.00 | 0.00 | 0.00 | 75 | 1011.5 |
| 20260902210010 | 47 | 346 | 7.8 | 13.9 | 0.00 | 0.00 | 0.00 | 75 | 1011.5 |
| 20260902205505 | 47 | 7 | 7.8 | 14.8 | 0.00 | 0.00 | 0.00 | 75 | 1011.4 |
| 20260902205003 | 47 | 344 | 8.7 | 15.6 | 0.00 | 0.00 | 0.00 | 74 | 1011.5 |
| 20260902204513 | 47 | 351 | 9.6 | 15.6 | 0.00 | 0.00 | 0.00 | 74 | 1011.4 |
| 20260902204007 | 47 | 337 | 9.6 | 14.8 | 0.00 | 0.00 | 0.00 | 74 | 1011.3 |
| 20260902203504 | 47 | 351 | 9.6 | 15.6 | 0.00 | 0.00 | 0.00 | 74 | 1011.3 |
| 20260902203013 | 47 | 2 | 8.7 | 16.5 | 0.00 | 0.00 | 0.00 | 74 | 1011.3 |
| 20260902202509 | 47 | 341 | 7.0 | 16.5 | 0.00 | 0.00 | 0.00 | 74 | 1011.3 |
| 20260902202008 | 47 | 349 | 8.7 | 16.5 | 0.00 | 0.00 | 0.00 | 74 | 1011.3 |
| 20260902201511 | 47 | 7 | 9.6 | 16.5 | 0.00 | 0.00 | 0.00 | 74 | 1011.3 |
| 20260902201007 | 46 | 341 | 8.7 | 14.8 | 0.00 | 0.00 | 0.00 | 75 | 1011.3 |
| 20260902200511 | 46 | 343 | 7.8 | 14.8 | 0.00 | 0.00 | 0.00 | 75 | 1011.3 |
| 20260902200005 | 46 | 339 | 8.7 | 14.8 | 0.00 | 0.00 | 0.00 | 75 | 1011.3 |
| 20260902195509 | 46 | 353 | 8.7 | 13.9 | 0.00 | 0.00 | 0.00 | 76 | 1011.3 |
| 20260902195008 | 45 | 347 | 5.2 | 10.4 | 0.00 | 0.00 | 0.00 | 77 | 1011.2 |
| 20260902194524 | 45 | 358 | 5.2 | 10.4 | 0.00 | 0.00 | 0.00 | 77 | 1011.3 |
| 20260902194008 | 45 | 7 | 5.2 | 13.0 | 0.00 | 0.00 | 0.00 | 77 | 1011.2 |
| 20260902193508 | 45 | 8 | 7.0 | 13.0 | 0.00 | 0.00 | 0.00 | 76 | 1011.3 |
| 20260902193011 | 45 | 15 | 7.0 | 12.2 | 0.00 | 0.00 | 0.00 | 77 | 1011.0 |
| 20260902192510 | 45 | 22 | 5.2 | 11.3 | 0.00 | 0.00 | 0.00 | 77 | 1010.9 |
| 20260902192007 | 45 | 354 | 6.1 | 11.3 | 0.00 | 0.00 | 0.00 | 77 | 1010.9 |
| 20260902191518 | 45 | 14 | 4.3 | 9.6 | 0.00 | 0.00 | 0.00 | 77 | 1010.9 |
| 20260902191009 | 45 | 27 | 3.5 | 8.7 | 0.00 | 0.00 | 0.00 | 76 | 1010.9 |
| 20260902190509 | 45 | 345 | 5.2 | 8.7 | 0.00 | 0.00 | 0.00 | 76 | 1010.9 |
| 20260902190017 | 45 | 337 | 2.6 | 8.7 | 0.00 | 0.00 | 0.00 | 75 | 1010.7 |
| 20260902185508 | 46 | 20 | 3.5 | 7.0 | 0.00 | 0.00 | 0.00 | 75 | 1010.8 |
| 20260902185004 | 46 | 36 | 2.6 | 6.1 | 0.00 | 0.00 | 0.00 | 75 | 1010.7 |
| 20260902184523 | 45 | 37 | 2.6 | 7.8 | 0.00 | 0.00 | 0.00 | 76 | 1010.7 |
| 20260902184011 | 45 | 30 | 2.6 | 7.8 | 0.00 | 0.00 | 0.00 | 76 | 1010.6 |
| 20260902183510 | 45 | 37 | 3.5 | 7.0 | 0.00 | 0.00 | 0.00 | 77 | 1010.7 |
| 20260902183014 | 44 | 37 | 1.7 | 7.8 | 0.00 | 0.00 | 0.00 | 77 | 1010.8 |
| 20260902182507 | 44 | 14 | 4.3 | 7.8 | 0.00 | 0.00 | 0.00 | 76 | 1010.9 |
| 20260902182009 | 45 | 337 | 4.3 | 8.7 | 0.00 | 0.00 | 0.00 | 76 | 1011.0 |
| 20260902181519 | 45 | 1 | 5.2 | 8.7 | 0.00 | 0.00 | 0.00 | 76 | 1010.9 |
| 20260902181011 | 45 | 4 | 4.3 | 7.8 | 0.00 | 0.00 | 0.00 | 75 | 1011.0 |
| 20260902180511 | 45 | 11 | 1.7 | 4.3 | 0.00 | 0.00 | 0.00 | 75 | 1011.0 |
| 20260902180018 | 45 | 16 | 1.7 | 5.2 | 0.00 | 0.00 | 0.00 | 75 | 1010.9 |
| 20260902175512 | 45 | 14 | 2.6 | 5.2 | 0.00 | 0.00 | 0.00 | 75 | 1010.8 |
| 20260902175012 | 45 | 20 | 2.6 | 6.1 | 0.00 | 0.00 | 0.00 | 75 | 1010.7 |
| 20260902174515 | 45 | 2 | 3.5 | 6.1 | 0.00 | 0.00 | 0.00 | 74 | 1010.7 |
| 20260902174017 | 45 | 20 | 3.5 | 5.2 | 0.00 | 0.00 | 0.00 | 74 | 1010.7 |
| 20260902173514 | 45 | 22 | 1.7 | 5.2 | 0.00 | 0.00 | 0.00 | 74 | 1010.6 |
| 20260902173021 | 45 | 16 | 1.7 | 5.2 | 0.00 | 0.00 | 0.00 | 74 | 1010.6 |
| 20260902172510 | 45 | 355 | 2.6 | 7.8 | 0.00 | 0.00 | 0.00 | 73 | 1010.6 |
| 20260902172009 | 46 | 3 | 3.5 | 7.8 | 0.00 | 0.00 | 0.00 | 73 | 1010.6 |
| 20260902171516 | 46 | 15 | 2.6 | 6.1 | 0.00 | 0.00 | 0.00 | 74 | 1010.6 |
| 20260902171013 | 46 | 29 | 2.6 | 5.2 | 0.00 | 0.00 | 0.00 | 74 | 1010.6 |
| 20260902170508 | 46 | 18 | 0.9 | 5.2 | 0.00 | 0.00 | 0.00 | 74 | 1010.6 |
| 20260902170024 | 46 | 18 | 2.6 | 6.1 | 0.00 | 0.00 | 0.00 | 74 | 1010.7 |
| 20260902165513 | 46 | 5 | 3.5 | 7.0 | 0.00 | 0.00 | 0.00 | 73 | 1011.0 |
| 20260902165013 | 46 | 349 | 4.3 | 7.0 | 0.00 | 0.00 | 0.00 | 73 | 1010.9 |
| 20260902164523 | 46 | 8 | 3.5 | 5.2 | 0.00 | 0.00 | 0.00 | 73 | 1011.0 |
| 20260902164010 | 46 | 331 | 2.6 | 7.0 | 0.00 | 0.00 | 0.00 | 73 | 1011.1 |
| 20260902163513 | 46 | 360 | 2.6 | 7.0 | 0.00 | 0.00 | 0.00 | 72 | 1011.1 |
| 20260902163027 | 46 | 17 | 2.6 | 6.1 | 0.00 | 0.00 | 0.00 | 72 | 1011.1 |
| 20260902162517 | 47 | 336 | 2.6 | 6.1 | 0.00 | 0.00 | 0.00 | 72 | 1011.2 |
| 20260902162013 | 47 | 8 | 2.6 | 5.2 | 0.00 | 0.00 | 0.00 | 73 | 1011.1 |
| 20260902161529 | 47 | 51 | 1.7 | 5.2 | 0.00 | 0.00 | 0.00 | 73 | 1011.1 |
| 20260902161016 | 47 | 57 | 0.9 | 6.1 | 0.00 | 0.00 | 0.00 | 73 | 1011.1 |
| 20260902160514 | 47 | 6 | 1.7 | 6.1 | 0.00 | 0.00 | 0.00 | 74 | 1011.2 |
| 20260902160027 | 47 | 30 | 1.7 | 5.2 | 0.00 | 0.00 | 0.00 | 74 | 1011.3 |
| 20260902155519 | 47 | 18 | 1.7 | 4.3 | 0.00 | 0.00 | 0.00 | 74 | 1011.4 |
| 20260902155012 | 47 | 26 | 0.0 | 5.2 | 0.00 | 0.00 | 0.00 | 74 | 1011.5 |
| 20260902154544 | 47 | 12 | 1.7 | 6.1 | 0.00 | 0.00 | 0.00 | 74 | 1011.5 |
| 20260902154019 | 47 | 15 | 3.5 | 10.4 | 0.00 | 0.00 | 0.00 | 74 | 1011.6 |
| 20260902153512 | 47 | 355 | 3.5 | 10.4 | 0.00 | 0.00 | 0.00 | 74 | 1011.6 |
| 20260902153025 | 48 | 344 | 5.2 | 10.4 | 0.00 | 0.00 | 0.00 | 74 | 1011.7 |
| 20260902152515 | 47 | 3 | 5.2 | 10.4 | 0.00 | 0.00 | 0.00 | 75 | 1011.7 |
| 20260902152013 | 47 | 354 | 5.2 | 8.7 | 0.00 | 0.00 | 0.00 | 75 | 1011.6 |
| 20260902151536 | 47 | 358 | 5.2 | 9.6 | 0.00 | 0.00 | 0.00 | 75 | 1011.6 |
| 20260902151019 | 48 | 330 | 5.2 | 9.6 | 0.00 | 0.00 | 0.00 | 75 | 1011.6 |
| 20260902150518 | 48 | 345 | 5.2 | 9.6 | 0.00 | 0.00 | 0.00 | 75 | 1011.6 |
| 20260902150026 | 47 | 357 | 4.3 | 9.6 | 0.00 | 0.00 | 0.00 | 76 | 1011.6 |
| 20260902145513 | 47 | 359 | 3.5 | 7.0 | 0.00 | 0.00 | 0.00 | 76 | 1011.7 |
| 20260902145016 | 47 | 346 | 3.5 | 6.1 | 0.00 | 0.00 | 0.00 | 76 | 1011.7 |
| 20260902144524 | 47 | 18 | 3.5 | 6.1 | 0.00 | 0.00 | 0.00 | 76 | 1011.7 |
| 20260902144012 | 47 | 30 | 2.6 | 6.1 | 0.00 | 0.00 | 0.00 | 76 | 1011.7 |
| 20260902143516 | 47 | 6 | 3.5 | 6.1 | 0.00 | 0.00 | 0.00 | 76 | 1011.7 |
| 20260902143025 | 47 | 16 | 2.6 | 5.2 | 0.00 | 0.00 | 0.00 | 76 | 1011.6 |
| 20260902142506 | 47 | 6 | 2.6 | 5.2 | 0.00 | 0.00 | 0.00 | 76 | 1011.7 |
| 20260902142005 | 47 | 23 | 1.7 | 3.5 | 0.00 | 0.00 | 0.00 | 75 | 1011.8 |
| 20260902141507 | 47 | 19 | 1.7 | 5.2 | 0.00 | 0.00 | 0.00 | 75 | 1011.8 |
| 20260902141007 | 48 | 1 | 2.6 | 7.0 | 0.00 | 0.00 | 0.00 | 74 | 1011.8 |
| 20260902140506 | 48 | 355 | 3.5 | 7.0 | 0.00 | 0.00 | 0.00 | 73 | 1011.8 |
| 20260902140015 | 49 | 345 | 4.3 | 7.0 | 0.00 | 0.00 | 0.00 | 72 | 1011.8 |
| 20260902135509 | 49 | 338 | 4.3 | 10.4 | 0.00 | 0.00 | 0.00 | 71 | 1011.8 |
| 20260902135005 | 50 | 338 | 4.3 | 10.4 | 0.00 | 0.00 | 0.00 | 71 | 1011.8 |
| 20260902134517 | 50 | 322 | 3.5 | 9.6 | 0.00 | 0.00 | 0.00 | 70 | 1011.8 |
| 20260902134007 | 50 | 326 | 4.3 | 9.6 | 0.00 | 0.00 | 0.00 | 71 | 1011.9 |
| 20260902133515 | 50 | 313 | 3.5 | 8.7 | 0.00 | 0.00 | 0.00 | 71 | 1012.0 |
| 20260902133021 | 50 | 341 | 4.3 | 7.8 | 0.00 | 0.00 | 0.00 | 73 | 1012.0 |
| 20260902132508 | 50 | 340 | 4.3 | 10.4 | 0.00 | 0.00 | 0.00 | 73 | 1012.1 |
| 20260902132015 | 50 | 342 | 4.3 | 10.4 | 0.00 | 0.00 | 0.00 | 73 | 1012.2 |
| 20260902131527 | 50 | 360 | 4.3 | 7.0 | 0.00 | 0.00 | 0.00 | 73 | 1012.2 |
| 20260902131004 | 49 | 332 | 3.5 | 7.0 | 0.00 | 0.00 | 0.00 | 73 | 1012.2 |
| 20260902130505 | 49 | 359 | 4.3 | 7.0 | 0.00 | 0.00 | 0.00 | 73 | 1012.4 |
| 20260902130024 | 49 | 346 | 3.5 | 7.0 | 0.00 | 0.00 | 0.00 | 73 | 1012.4 |
| 20260902125506 | 49 | 352 | 2.6 | 5.2 | 0.00 | 0.00 | 0.00 | 73 | 1012.4 |
| 20260902125008 | 49 | 356 | 1.7 | 5.2 | 0.00 | 0.00 | 0.00 | 73 | 1012.5 |
| 20260902124509 | 49 | 12 | 1.7 | 7.0 | 0.00 | 0.00 | 0.00 | 73 | 1012.6 |
| 20260902124009 | 49 | 338 | 4.3 | 7.0 | 0.00 | 0.00 | 0.00 | 73 | 1012.6 |
| 20260902123512 | 49 | 357 | 1.7 | 4.3 | 0.00 | 0.00 | 0.00 | 73 | 1012.7 |
| 20260902123024 | 49 | 308 | 0.9 | 2.6 | 0.00 | 0.00 | 0.00 | 73 | 1012.7 |
| 20260902122514 | 49 | 308 | 1.7 | 2.6 | 0.00 | 0.00 | 0.00 | 72 | 1012.8 |
| 20260902122009 | 49 | 308 | 0.0 | 2.6 | 0.00 | 0.00 | 0.00 | 71 | 1012.8 |
| 20260902121526 | 49 | 308 | 0.0 | 3.5 | 0.00 | 0.00 | 0.00 | 71 | 1012.8 |
| 20260902121017 | 49 | 313 | 0.9 | 4.3 | 0.00 | 0.00 | 0.00 | 72 | 1012.7 |
| 20260902120509 | 49 | 354 | 1.7 | 4.3 | 0.00 | 0.00 | 0.00 | 71 | 1012.7 |
| 20260902120032 | 49 | 73 | 0.9 | 5.2 | 0.00 | 0.00 | 0.00 | 72 | 1012.7 |
| 20260902115510 | 49 | 49 | 1.7 | 5.2 | 0.00 | 0.00 | 0.00 | 72 | 1012.8 |
| 20260902115005 | 49 | 19 | 1.7 | 5.2 | 0.00 | 0.00 | 0.00 | 72 | 1012.8 |
| 20260902114518 | 49 | 18 | 2.6 | 5.2 | 0.00 | 0.00 | 0.00 | 73 | 1012.9 |
| 20260902114010 | 49 | 31 | 2.6 | 5.2 | 0.00 | 0.00 | 0.00 | 73 | 1012.9 |
| 20260902113510 | 49 | 32 | 1.7 | 5.2 | 0.00 | 0.00 | 0.00 | 73 | 1012.9 |
| 20260902113014 | 49 | 70 | 0.9 | 7.8 | 0.00 | 0.00 | 0.00 | 73 | 1013.0 |
| 20260902112509 | 50 | 29 | 2.6 | 7.8 | 0.00 | 0.00 | 0.00 | 73 | 1013.1 |
| 20260902112014 | 49 | 349 | 3.5 | 7.8 | 0.00 | 0.00 | 0.00 | 74 | 1013.1 |
| 20260902111521 | 50 | 353 | 5.2 | 8.7 | 0.00 | 0.00 | 0.00 | 74 | 1013.2 |
| 20260902111013 | 50 | 321 | 5.2 | 8.7 | 0.00 | 0.00 | 0.00 | 74 | 1013.3 |
| 20260902110512 | 49 | 330 | 3.5 | 8.7 | 0.00 | 0.00 | 0.00 | 74 | 1013.4 |
| 20260902110025 | 49 | 317 | 4.3 | 8.7 | 0.00 | 0.00 | 0.00 | 75 | 1013.5 |
| 20260902105516 | 49 | 327 | 5.2 | 7.8 | 0.00 | 0.00 | 0.00 | 75 | 1013.4 |
| 20260902105017 | 49 | 318 | 5.2 | 8.7 | 0.00 | 0.00 | 0.00 | 75 | 1013.4 |
| 20260902104514 | 49 | 337 | 6.1 | 8.7 | 0.00 | 0.00 | 0.00 | 74 | 1013.4 |
| 20260902104016 | 48 | 318 | 6.1 | 8.7 | 0.00 | 0.00 | 0.00 | 75 | 1013.4 |
| 20260902103512 | 48 | 331 | 4.3 | 9.6 | 0.00 | 0.00 | 0.00 | 75 | 1013.3 |
| 20260902103009 | 47 | 333 | 6.1 | 9.6 | 0.00 | 0.00 | 0.00 | 74 | 1013.3 |
| 20260902102509 | 48 | 326 | 4.3 | 7.8 | 0.00 | 0.00 | 0.00 | 73 | 1013.2 |
| 20260902102010 | 49 | 343 | 4.3 | 7.8 | 0.00 | 0.00 | 0.00 | 72 | 1013.1 |
| 20260902101518 | 49 | 318 | 4.3 | 8.7 | 0.00 | 0.00 | 0.00 | 71 | 1013.1 |
| 20260902101014 | 50 | 326 | 5.2 | 8.7 | 0.00 | 0.00 | 0.00 | 71 | 1013.2 |
| 20260902100513 | 50 | 322 | 4.3 | 9.6 | 0.00 | 0.00 | 0.00 | 71 | 1013.1 |
| 20260902100027 | 50 | 310 | 5.2 | 9.6 | 0.00 | 0.00 | 0.00 | 70 | 1012.9 |
| 20260902095514 | 51 | 328 | 6.1 | 10.4 | 0.00 | 0.00 | 0.00 | 70 | 1012.8 |
| 20260902095016 | 51 | 345 | 6.1 | 12.2 | 0.00 | 0.00 | 0.00 | 71 | 1012.9 |
| 20260902094530 | 51 | 322 | 7.0 | 12.2 | 0.00 | 0.00 | 0.00 | 71 | 1012.8 |
| 20260902094012 | 51 | 297 | 7.0 | 12.2 | 0.00 | 0.00 | 0.00 | 71 | 1012.7 |
| 20260902093518 | 51 | 328 | 6.1 | 11.3 | 0.00 | 0.00 | 0.00 | 71 | 1012.7 |
| 20260902093035 | 51 | 323 | 7.0 | 12.2 | 0.00 | 0.00 | 0.00 | 72 | 1012.6 |
| 20260902092519 | 50 | 325 | 7.8 | 12.2 | 0.00 | 0.00 | 0.00 | 72 | 1012.6 |
| 20260902092016 | 50 | 349 | 7.0 | 12.2 | 0.00 | 0.00 | 0.00 | 72 | 1012.5 |
| 20260902091527 | 50 | 356 | 8.7 | 12.2 | 0.00 | 0.00 | 0.00 | 72 | 1012.5 |
| 20260902091012 | 50 | 335 | 7.8 | 10.4 | 0.00 | 0.00 | 0.00 | 72 | 1012.4 |
| 20260902090513 | 50 | 331 | 7.0 | 10.4 | 0.00 | 0.00 | 0.00 | 71 | 1012.5 |
| 20260902090018 | 50 | 312 | 6.1 | 10.4 | 0.00 | 0.00 | 0.00 | 71 | 1012.5 |
| 20260902085511 | 50 | 318 | 6.1 | 10.4 | 0.00 | 0.00 | 0.00 | 71 | 1012.5 |
| 20260902085015 | 51 | 314 | 6.1 | 9.6 | 0.00 | 0.00 | 0.00 | 70 | 1012.5 |
| 20260902084528 | 51 | 342 | 6.1 | 9.6 | 0.00 | 0.00 | 0.00 | 70 | 1012.4 |
| 20260902084015 | 51 | 324 | 6.1 | 9.6 | 0.00 | 0.00 | 0.00 | 69 | 1012.4 |
| 20260902083513 | 52 | 320 | 6.1 | 9.6 | 0.00 | 0.00 | 0.00 | 69 | 1012.3 |
| 20260902083036 | 52 | 331 | 6.1 | 9.6 | 0.00 | 0.00 | 0.00 | 69 | 1012.4 |
| 20260902082503 | 52 | 341 | 6.1 | 10.4 | 0.00 | 0.00 | 0.00 | 69 | 1012.4 |
| 20260902082008 | 52 | 339 | 7.0 | 11.3 | 0.00 | 0.00 | 0.00 | 69 | 1012.3 |
| 20260902081507 | 53 | 344 | 6.1 | 11.3 | 0.00 | 0.00 | 0.00 | 69 | 1012.3 |
| 20260902081016 | 53 | 338 | 7.0 | 12.2 | 0.00 | 0.00 | 0.00 | 68 | 1012.4 |
| 20260902080509 | 53 | 334 | 8.7 | 12.2 | 0.00 | 0.00 | 0.00 | 68 | 1012.4 |
| 20260902080005 | 53 | 351 | 6.1 | 10.4 | 0.00 | 0.00 | 0.00 | 69 | 1012.3 |
| 20260902075511 | 54 | 343 | 6.1 | 10.4 | 0.00 | 0.00 | 0.00 | 68 | 1012.3 |
| 20260902075007 | 54 | 335 | 6.1 | 11.3 | 0.00 | 0.00 | 0.00 | 68 | 1012.2 |
| 20260902074505 | 55 | 328 | 7.0 | 12.2 | 0.00 | 0.00 | 0.00 | 67 | 1012.2 |
| 20260902074012 | 55 | 345 | 7.0 | 14.8 | 0.00 | 0.00 | 0.00 | 67 | 1012.1 |
| 20260902073505 | 56 | 324 | 7.8 | 14.8 | 0.00 | 0.00 | 0.00 | 67 | 1012.1 |
| 20260902073014 | 56 | 337 | 5.2 | 13.9 | 0.00 | 0.00 | 0.00 | 67 | 1012.2 |
| 20260902072503 | 56 | 347 | 7.8 | 16.5 | 0.00 | 0.00 | 0.00 | 66 | 1012.2 |
| 20260902072006 | 57 | 8 | 7.8 | 16.5 | 0.00 | 0.00 | 0.00 | 66 | 1012.2 |
| 20260902071507 | 57 | 14 | 7.0 | 13.9 | 0.00 | 0.00 | 0.00 | 66 | 1012.2 |
| 20260902071008 | 57 | 10 | 5.2 | 14.8 | 0.00 | 0.00 | 0.00 | 66 | 1012.2 |
| 20260902070507 | 56 | 347 | 7.0 | 14.8 | 0.00 | 0.00 | 0.00 | 65 | 1012.1 |
| 20260902070015 | 57 | 358 | 8.7 | 16.5 | 0.00 | 0.00 | 0.00 | 64 | 1012.2 |
| 20260902065508 | 57 | 347 | 9.6 | 16.5 | 0.00 | 0.00 | 0.00 | 64 | 1012.2 |
| 20260902065012 | 58 | 344 | 7.8 | 14.8 | 0.00 | 0.00 | 0.00 | 63 | 1012.2 |
| 20260902064517 | 58 | 11 | 6.1 | 12.2 | 0.00 | 0.00 | 0.00 | 65 | 1012.2 |
| 20260902064006 | 57 | 351 | 5.2 | 12.2 | 0.00 | 0.00 | 0.00 | 65 | 1012.3 |
| 20260902063512 | 57 | 339 | 6.1 | 13.9 | 0.00 | 0.00 | 0.00 | 65 | 1012.3 |
| 20260902063017 | 57 | 345 | 8.7 | 13.9 | 0.00 | 0.00 | 0.00 | 63 | 1012.4 |
| 20260902062516 | 59 | 332 | 7.8 | 13.0 | 0.00 | 0.00 | 0.00 | 62 | 1012.5 |
| 20260902062014 | 60 | 341 | 7.8 | 13.0 | 0.00 | 0.00 | 0.00 | 63 | 1012.5 |
| 20260902061506 | 59 | 339 | 6.1 | 14.8 | 0.00 | 0.00 | 0.00 | 65 | 1012.6 |
| 20260902061011 | 59 | 349 | 7.0 | 15.6 | 0.00 | 0.00 | 0.00 | 62 | 1012.6 |
| 20260902060508 | 60 | 358 | 7.8 | 15.6 | 0.00 | 0.00 | 0.00 | 64 | 1012.7 |
| 20260902060008 | 58 | 11 | 5.2 | 13.0 | 0.00 | 0.00 | 0.00 | 64 | 1012.5 |
| 20260902055508 | 58 | 347 | 5.2 | 14.8 | 0.00 | 0.00 | 0.00 | 64 | 1012.6 |
| 20260902055010 | 59 | 7 | 7.0 | 14.8 | 0.00 | 0.00 | 0.00 | 62 | 1012.7 |
| 20260902054524 | 60 | 337 | 11.3 | 14.8 | 0.00 | 0.00 | 0.00 | 61 | 1012.6 |
| 20260902054009 | 58 | 339 | 7.0 | 13.9 | 0.00 | 0.00 | 0.00 | 64 | 1012.7 |
| 20260902053508 | 59 | 336 | 7.8 | 16.5 | 0.00 | 0.00 | 0.00 | 60 | 1012.7 |
| 20260902053026 | 60 | 338 | 10.4 | 16.5 | 0.00 | 0.00 | 0.00 | 60 | 1012.7 |
| 20260902052509 | 59 | 330 | 7.0 | 14.8 | 0.00 | 0.00 | 0.00 | 61 | 1012.8 |
| 20260902052014 | 59 | 339 | 10.4 | 15.6 | 0.00 | 0.00 | 0.00 | 59 | 1012.9 |
| 20260902051527 | 60 | 337 | 6.1 | 15.6 | 0.00 | 0.00 | 0.00 | 60 | 1012.9 |
| 20260902051007 | 61 | 311 | 11.3 | 15.6 | 0.00 | 0.00 | 0.00 | 57 | 1012.8 |
| 20260902050520 | 61 | 330 | 9.6 | 15.6 | 0.00 | 0.00 | 0.00 | 59 | 1012.8 |
| 20260902050010 | 60 | 349 | 8.7 | 16.5 | 0.00 | 0.00 | 0.00 | 61 | 1012.8 |
| 20260902045505 | 60 | 351 | 9.6 | 19.1 | 0.00 | 0.00 | 0.00 | 59 | 1012.8 |
| 20260902045008 | 60 | 3 | 6.1 | 19.1 | 0.00 | 0.00 | 0.00 | 61 | 1012.8 |
| 20260902044513 | 60 | 337 | 7.8 | 14.8 | 0.00 | 0.00 | 0.00 | 62 | 1012.8 |
| 20260902044009 | 60 | 345 | 7.8 | 18.2 | 0.00 | 0.00 | 0.00 | 61 | 1012.9 |
| 20260902043510 | 60 | 340 | 9.6 | 18.2 | 0.00 | 0.00 | 0.00 | 59 | 1012.9 |
| 20260902043017 | 61 | 4 | 9.6 | 18.2 | 0.00 | 0.00 | 0.00 | 60 | 1012.8 |
| 20260902042511 | 61 | 346 | 11.3 | 18.2 | 0.00 | 0.00 | 0.00 | 61 | 1012.7 |
| 20260902042012 | 60 | 329 | 10.4 | 17.4 | 0.00 | 0.00 | 0.00 | 60 | 1012.8 |
| 20260902041510 | 61 | 338 | 7.8 | 15.6 | 0.00 | 0.00 | 0.00 | 63 | 1012.7 |
| 20260902041016 | 60 | 4 | 9.6 | 18.2 | 0.00 | 0.00 | 0.00 | 62 | 1012.8 |
| 20260902040511 | 61 | 16 | 10.4 | 18.2 | 0.00 | 0.00 | 0.00 | 61 | 1012.8 |
| 20260902040030 | 60 | 336 | 9.6 | 15.6 | 0.00 | 0.00 | 0.00 | 60 | 1012.8 |
| 20260902035512 | 60 | 334 | 8.7 | 15.6 | 0.00 | 0.00 | 0.00 | 60 | 1012.8 |
| 20260902035010 | 62 | 342 | 9.6 | 17.4 | 0.00 | 0.00 | 0.00 | 61 | 1012.9 |
| 20260902034530 | 61 | 336 | 8.7 | 17.4 | 0.00 | 0.00 | 0.00 | 61 | 1012.9 |
| 20260902034007 | 61 | 312 | 7.8 | 13.9 | 0.00 | 0.00 | 0.00 | 66 | 1013.0 |
| 20260902033512 | 59 | 333 | 0.9 | 4.3 | 0.00 | 0.00 | 0.00 | 71 | 1013.1 |
| 20260902033016 | 58 | 141 | 0.0 | 3.5 | 0.00 | 0.00 | 0.00 | 70 | 1013.2 |
| 20260902032512 | 58 | 139 | 1.7 | 4.3 | 0.00 | 0.00 | 0.00 | 71 | 1013.3 |
| 20260902032023 | 57 | 132 | 0.9 | 5.2 | 0.00 | 0.00 | 0.00 | 71 | 1013.3 |
| 20260902031527 | 58 | 195 | 3.5 | 5.2 | 0.00 | 0.00 | 0.00 | 71 | 1013.3 |
| 20260902031011 | 58 | 135 | 2.6 | 5.2 | 0.00 | 0.00 | 0.00 | 71 | 1013.4 |
| 20260902030514 | 58 | 105 | 2.6 | 5.2 | 0.00 | 0.00 | 0.00 | 71 | 1013.6 |
| 20260902030024 | 58 | 204 | 1.7 | 5.2 | 0.00 | 0.00 | 0.00 | 72 | 1013.6 |
| 20260902025519 | 58 | 175 | 3.5 | 6.1 | 0.00 | 0.00 | 0.00 | 71 | 1013.7 |
| 20260902025014 | 57 | 260 | 0.9 | 6.1 | 0.00 | 0.00 | 0.00 | 72 | 1013.7 |
| 20260902024521 | 57 | 209 | 0.9 | 4.3 | 0.00 | 0.00 | 0.00 | 72 | 1014.0 |
| 20260902024019 | 57 | 128 | 0.9 | 3.5 | 0.00 | 0.00 | 0.00 | 72 | 1014.1 |
| 20260902023516 | 57 | 214 | 1.7 | 5.2 | 0.00 | 0.00 | 0.00 | 72 | 1014.2 |
| 20260902023033 | 56 | 175 | 1.7 | 5.2 | 0.00 | 0.00 | 0.00 | 74 | 1014.1 |
| 20260902022504 | 56 | 193 | 1.7 | 8.7 | 0.00 | 0.00 | 0.00 | 73 | 1014.4 |
| 20260902022005 | 55 | 232 | 4.3 | 8.7 | 0.00 | 0.00 | 0.00 | 72 | 1014.5 |
| 20260902021525 | 56 | 219 | 3.5 | 7.8 | 0.00 | 0.00 | 0.00 | 72 | 1014.5 |
| 20260902021007 | 56 | 191 | 2.6 | 7.8 | 0.00 | 0.00 | 0.00 | 73 | 1014.5 |
| 20260902020504 | 56 | 192 | 3.5 | 7.8 | 0.00 | 0.00 | 0.00 | 73 | 1014.7 |
| 20260902020004 | 56 | 208 | 2.6 | 7.8 | 0.00 | 0.00 | 0.00 | 70 | 1014.8 |
| 20260902015504 | 57 | 147 | 0.9 | 2.6 | 0.00 | 0.00 | 0.00 | 70 | 1014.9 |
| 20260902015004 | 57 | 71 | 0.0 | 1.7 | 0.00 | 0.00 | 0.00 | 71 | 1014.9 |
| 20260902014507 | 56 | 70 | 0.0 | 2.6 | 0.00 | 0.00 | 0.00 | 73 | 1015.0 |
| 20260902014006 | 55 | 101 | 0.9 | 6.1 | 0.00 | 0.00 | 0.00 | 72 | 1015.1 |
| 20260902013510 | 55 | 98 | 2.6 | 7.0 | 0.00 | 0.00 | 0.00 | 73 | 1015.2 |
| 20260902013007 | 55 | 121 | 4.3 | 7.0 | 0.00 | 0.00 | 0.00 | 73 | 1015.2 |
| 20260902012508 | 55 | 77 | 1.7 | 5.2 | 0.00 | 0.00 | 0.00 | 74 | 1015.2 |
| 20260902012008 | 54 | 72 | 0.9 | 7.8 | 0.00 | 0.00 | 0.00 | 74 | 1015.2 |
| 20260902011510 | 54 | 100 | 2.6 | 7.8 | 0.00 | 0.00 | 0.00 | 75 | 1015.3 |
| 20260902011012 | 54 | 210 | 2.6 | 4.3 | 0.00 | 0.00 | 0.00 | 77 | 1015.5 |
| 20260902010503 | 53 | 192 | 2.6 | 5.2 | 0.00 | 0.00 | 0.00 | 76 | 1015.5 |
| 20260902010023 | 53 | 142 | 2.6 | 7.8 | 0.00 | 0.00 | 0.00 | 76 | 1015.6 |
| 20260902005511 | 53 | 117 | 1.7 | 7.8 | 0.00 | 0.00 | 0.00 | 76 | 1015.7 |
| 20260902005005 | 53 | 172 | 2.6 | 7.0 | 0.00 | 0.00 | 0.00 | 77 | 1015.8 |
| 20260902004504 | 52 | 213 | 1.7 | 7.0 | 0.00 | 0.00 | 0.00 | 77 | 1015.9 |
| 20260902004006 | 52 | 166 | 3.5 | 7.0 | 0.00 | 0.00 | 0.00 | 78 | 1015.9 |
| 20260902003504 | 52 | 180 | 2.6 | 6.1 | 0.00 | 0.00 | 0.00 | 78 | 1015.9 |
| 20260902003010 | 52 | 198 | 3.5 | 6.1 | 0.00 | 0.00 | 0.00 | 79 | 1015.8 |
| 20260902002505 | 51 | 167 | 2.6 | 5.2 | 0.00 | 0.00 | 0.00 | 79 | 1015.9 |
| 20260902002010 | 51 | 180 | 2.6 | 7.0 | 0.00 | 0.00 | 0.00 | 78 | 1016.0 |
| 20260902001514 | 51 | 169 | 4.3 | 7.0 | 0.00 | 0.00 | 0.00 | 79 | 1016.1 |
| 20260902001006 | 51 | 129 | 2.6 | 7.8 | 0.00 | 0.00 | 0.00 | 79 | 1016.1 |
| 20260902000512 | 51 | 180 | 3.5 | 7.8 | 0.00 | 0.00 | 0.00 | 79 | 1016.0 |
| 20260902000015 | 51 | 195 | 3.5 | 7.8 | 0.00 | 0.00 | 0.00 | 80 | 1016.1 |
| 20260901235514 | 50 | 172 | 4.3 | 7.0 | 0.00 | 0.00 | 0.00 | 80 | 1016.1 |
| 20260901235011 | 50 | 185 | 4.3 | 7.0 | 0.00 | 0.00 | 0.00 | 80 | 1016.0 |
| 20260901234510 | 50 | 198 | 4.3 | 7.8 | 0.00 | 0.00 | 0.00 | 81 | 1015.9 |
| 20260901234018 | 50 | 159 | 4.3 | 7.8 | 0.00 | 0.00 | 0.00 | 81 | 1016.0 |
| 20260901233507 | 50 | 193 | 3.5 | 7.0 | 0.00 | 0.00 | 0.00 | 81 | 1016.0 |
| 20260901233006 | 50 | 160 | 3.5 | 7.0 | 0.00 | 0.00 | 0.00 | 81 | 1016.1 |
| 20260901232506 | 51 | 172 | 2.6 | 5.2 | 0.00 | 0.00 | 0.00 | 82 | 1016.1 |
| 20260901232004 | 51 | 143 | 2.6 | 7.0 | 0.00 | 0.00 | 0.00 | 82 | 1016.1 |
| 20260901231510 | 50 | 175 | 4.3 | 7.0 | 0.00 | 0.00 | 0.00 | 82 | 1016.1 |
| 20260901231005 | 50 | 149 | 3.5 | 7.8 | 0.00 | 0.00 | 0.00 | 82 | 1016.1 |
| 20260901230506 | 51 | 159 | 3.5 | 7.8 | 0.00 | 0.00 | 0.00 | 82 | 1016.1 |
| 20260901230022 | 51 | 185 | 3.5 | 7.0 | 0.00 | 0.00 | 0.00 | 82 | 1016.1 |
| 20260901225513 | 51 | 199 | 3.5 | 7.8 | 0.00 | 0.00 | 0.00 | 82 | 1016.0 |
| 20260901225005 | 51 | 194 | 5.2 | 7.8 | 0.00 | 0.00 | 0.00 | 82 | 1016.1 |